This demonstration page uses our WeatherBlox Daily Observations layout. Learn more.

Left ArrowRight Arrow

36.17497, -115.13722

Hourly Observations for January 17, 2016

Temp ( °F °C ) Dew Point ( °F °C ) Humidity (%) Winds ( mph kmh ) Pressure ( in mb ) Visibility ( mi km ) Precip ( " mm )
12:53 am 00:53 Clear 40 4.4 30 -1.1 68 68 NE 7 11 30.28 1026 10 16 N/A
1:53 am 01:53 Clear 37 2.8 29 -1.7 73 73 N N/A 30.29 1026 10 16 N/A
2:53 am 02:53 Clear 39 3.9 28 -2.2 65 65 NW 6 9 30.29 1026 10 16 N/A
3:53 am 03:53 Clear 37 2.8 28 -2.2 70 70 NNW 6 9 30.29 1026 10 16 N/A
4:53 am 04:53 Clear 34 1.1 28 -2.2 79 79 N N/A 30.29 1026 10 16 N/A
5:53 am 05:53 Clear 35 1.7 28 -2.2 76 76 N N/A 30.30 1026 10 16 N/A
6:53 am 06:53 Sunny 33 0.6 27 -2.8 78 78 N N/A 30.33 1027 10 16 N/A
7:53 am 07:53 Sunny 37 2.8 29 -1.7 73 73 N N/A 30.34 1027 10 16 N/A
8:53 am 08:53 Sunny 44 6.7 30 -1.1 58 58 N N/A 30.37 1029 10 16 N/A
9:53 am 09:53 Sunny 46 7.8 31 -0.6 56 56 SE 3 6 30.38 1029 10 16 N/A
10:53 am 10:53 Sunny 50 10 31 -0.6 48 48 ESE 6 9 30.35 1028 10 16 N/A
11:53 am 11:53 Sunny 51 10.6 30 -1.1 44 44 ESE 5 7 30.33 1027 10 16 N/A
12:53 pm 12:53 Sunny 53 11.7 29 -1.7 40 40 E 5 7 30.28 1026 10 16 N/A
1:53 pm 13:53 Sunny 54 12.2 28 -2.2 37 37 SE 7 11 30.25 1024 10 16 N/A
2:53 pm 14:53 Sunny 54 12.2 28 -2.2 37 37 SSE 5 7 30.24 1024 10 16 N/A
3:53 pm 15:53 Sunny 54 12.2 29 -1.7 38 38 SE 5 7 30.24 1024 10 16 N/A
4:53 pm 16:53 Clear 53 11.7 30 -1.1 41 41 SSW 3 6 30.24 1024 10 16 N/A
5:53 pm 17:53 Clear 51 10.6 30 -1.1 44 44 S 3 6 30.25 1024 10 16 N/A
6:53 pm 18:53 Clear 48 8.9 29 -1.7 48 48 N N/A 30.25 1024 10 16 N/A
7:53 pm 19:53 Clear 49 9.4 30 -1.1 48 48 SSE 3 6 30.24 1024 10 16 N/A
8:53 pm 20:53 Clear 46 7.8 31 -0.6 56 56 SSE 3 6 30.23 1024 10 16 N/A
9:53 pm 21:53 Clear 47 8.3 32 undefined 56 56 N N/A 30.23 1024 10 16 N/A
10:53 pm 22:53 Clear 45 7.2 32 undefined 61 61 WNW 5 7 30.22 1024 10 16 N/A
11:53 pm 23:53 Clear 45 7.2 33 0.6 63 63 NNE 5 7 30.20 1023 10 16 N/A

Powered by AerisWeather